Zurück zum Katalog

STARLINK-31987

AktivKommunikationVLEO
NORAD 60017·PAYLOAD·🇺🇸 United States

Gestartet Jun 8, 2024 von Cape Canaveral Space Force Station

Loading…

Nächste Überflüge (nächste 24 Stunden)

TLE

AktuellSource: CelesTrak SupGP

Epoche: Sep 14, 2026, 21:19 UTC

1 60017C 24111B   26257.88868056  .00044151  00000+0  14198-2 0  2570
2 60017  53.1572 275.7296 0001133  93.1213 354.2010 15.31678795    12

Verfolge STARLINK-31987 in Echtzeit mit AllMySat

Download on the App Store